Regional Weather Roundup
Issued by NWS

Home | Current Version | Previous Version | Graphics & Text | Print | Product List | Glossary On
Versions: 1 2 3 4 5 6 7 8 9 10 11 12 13 14 15 16 17 18 19 20 21 22 23 24 25 26 27 28 29 30 31 32 33 34 35 36 37 38 39 40 41 42 43 44 45 46 47 48 49 50
000
ASUS45 KBOU 301010
RWRCO

WEATHER ROUNDUP FOR COLORADO
NATIONAL WEATHER SERVICE PUEBLO CO
400 AM MDT THU JUL 30 2015

NOTE: "FAIR" INDICATES FEW OR NO CLOUDS BELOW 12000 FEET WITH NO
SIGNIFICANT WEATHER AND/OR OBSTRUCTIONS TO VISIBILITY.

COZ001>005-013-030-031-301100-
...NORTHWEST COLORADO...

CITY           SKY/WX    TMP DP  RH WIND       PRES   REMARKS
CRAIG          CLEAR     40  31  70 CALM      30.40R
HAYDEN         CLEAR     52  27  37 E14       30.41S
MEEKER         CLEAR     45  29  53 VRB5      30.41S
MOUNT WERNER   NOT AVBL
STEAMBOAT SPGS FAIR      43  31  63 CALM      30.45R
WALDEN         FAIR      36  28  75 SE7       30.52S
$$

COZ006>008-011-301100-
...WEST CENTRAL VALLEYS...

CITY           SKY/WX    TMP DP  RH WIND       PRES   REMARKS
GRAND JUNCTION PTCLDY    65  27  23 CALM      30.25R
MONTROSE       CLEAR     56  35  45 SE7       30.34S
EAGLE          PTCLDY    50  30  46 CALM      30.46R
RIFLE          PTCLDY    55  28  35 CALM      30.34S
DELTA          NOT AVBL
NUCLA          NOT AVBL
$$

COZ017>023-064>068-301100-
...SOUTHWEST COLORADO...

CITY           SKY/WX    TMP DP  RH WIND       PRES   REMARKS
DURANGO        PTCLDY    53  46  77 NE3       30.43S
CORTEZ         CLEAR     57  47  69 E5        30.35F
PAGOSA SPRINGS FAIR      51  46  86 CALM      30.50F
TELLURIDE      NOT AVBL
WOLF CREEK PAS NOT AVBL
$$

COZ009-010-012-014-032>034-037-058>063-301100-
...CENTRAL COLORADO...

CITY           SKY/WX    TMP DP  RH WIND       PRES   REMARKS
ASPEN          PTCLDY    50  36  58 CALM      30.48S
BUENA VISTA    FAIR      49  46  90 S3        30.52S
COPPER MTN     PTCLDY    54  25  32 SW5       30.79S
BERTHOUD PASS  FAIR      43  32  65 W12       30.82F
COTTONWOOD PAS CLEAR     55  41  58 W8        30.62F
GUNNISON       NOT AVBL
KREMMLING      PTCLDY    41  32  70 CALM      30.51S
LEADVILLE      PTCLDY    44  43  96 E7        30.64F
MONARCH PASS   PTCLDY    46  37  71 SW8       30.87F
SALIDA         FAIR      55  47  75 W6        30.56S
NIWOT RIDGE    NOT AVBL
SUNLIGHT       PTCLDY    55  25  30 CALM      30.71F
WILKERSON PASS CLEAR     46  39  76 W8        30.75S
$$

COZ069>075-301100-
...SAN LUIS VALLEY/SANGRE DE CRISTO MOUNTAINS...

CITY           SKY/WX    TMP DP  RH WIND       PRES   REMARKS
ALAMOSA        PTCLDY    53  49  86 W5        30.48S
LA VETA PASS   MOCLDY    45  45 100 MISG      30.63S FOG
SAGUACHE       PTCLDY    52  45  76 N8        30.52S
$$

COZ035-036-038>040-301100-
...NORTHERN COLORADO FRONT RANGE...

CITY           SKY/WX    TMP DP  RH WIND       PRES   REMARKS
DENVER INTL AP PTCLDY    65  50  58 SW5       30.30R
DMNS CITY PARK NOT AVBL
AURORA         PTCLDY    63  50  63 SW8       30.32R
FRONT RANGE AP NOT AVBL
ERIE MUNI ARPT FAIR      58  52  80 NW5       30.29S
BOULDER MUN AP FAIR      63  52  67 E3        30.30S
CENTENNIAL     PTCLDY    62  48  60 S3        30.33R
BROOMFIELD     PTCLDY    63  50  63 N17       30.31F
LOVELAND       PTCLDY    59  48  67 N8        30.30S
LONGMONT       FAIR      64  52  64 CALM      30.31R
$$

COZ041-046-047-076>085-087-088-301100-
...PIKES PEAK/PALMER DIVIDE AND SOUTHERN FOOTHILLS...

CITY           SKY/WX    TMP DP  RH WIND       PRES   REMARKS
COLO. SPRINGS  PTCLDY    58  52  80 NE6       30.39F
A. F. ACADEMY  MOCLDY    52  48  88 N6        30.40F
ELLICOTT       FAIR     N/A N/A N/A SE8       30.37F
FALCON         FAIR      56  54  92 W3        30.44S
FORT CARSON    PTCLDY    58  52  80 N6        30.36S
LIMON          CLOUDY    58  57  97 SE7       30.35F
MONUMENT HILL  NOT AVBL
TRINIDAD       PTCLDY    58  53  84 W8        30.37R
$$

COZ042>045-048>051-090-091-301100-
...NORTHEAST COLORADO...

CITY           SKY/WX    TMP DP  RH WIND       PRES   REMARKS
GREELEY ARPT   PTCLDY    55  50  82 N6        30.28S
AKRON          CLEAR     59  56  89 S10       30.30S
BURLINGTON     CLEAR     60  57  89 S8        30.31S
WRAY           FAIR      59  55  85 SW3       30.28S
STERLING       FAIR      59  54  82 SW7       30.26S
HOLYOKE        FAIR      55  50  82 S3        30.28S
FORT MORGAN    FAIR      56  52  84 E6        30.28S
$$

COZ086-089-092>099-301100-
...SOUTHEAST COLORADO...

CITY           SKY/WX    TMP DP  RH WIND       PRES   REMARKS
PUEBLO         PTCLDY    64  50  60 N5        30.28S
LA JUNTA       CLEAR     68  63  84 E7        30.27S
LAMAR          MOCLDY    67  64  90 E5        30.27S
SPRINGFIELD      N/A     65  64  97 S7        30.31R
$$



USA.gov is the U.S. government's official web portal to all federal, state and local government web resources and services.